Track ONEWEB-0262 now! 10-day predictions ONEWEB-0262 is classified as:
1 48980U 21060P 22142.91668981 .00043081 00000-0 11217+0 0 9994 2 48980 87.9131 164.5999 0001307 90.6555 258.1639 13.16570040 45352